Location: Bednik
(45.3500°N, 16.3833°E)
Time: 06:18:22
(UTC+00:00)

Cosmos 1725 Rocket - Pass Details

Date: 08 August 2020
Orbit: 961 x 991 km, 82.9° (Epoch: 23 September)

Event Time Altitude Azimuth Distance (km) Brightness Sun altitude
Exits shadow 22:27:19 52° 246° (WSW) 1,214 4.3 -28.4°
Maximum altitude 22:28:20 58° 282° (WNW) 1,144 4.3 -28.4°
Drops below altitude 10° 22:34:35 10° 1° (N) 2,764 7.3 -28.6°
Sets 22:37:11 0° 6° (N) 3,718 8.2 -28.6°
